User: anonymous   Login
Location: Betra
(48.4113°N, 8.6634°E)
Time: 14:10:45
(UTC+00:00)
Language:

Cosmos 2151 Rocket - Orbit

View from above orbital plane
View from above orbital plane
View from above satellite
View from above satellite

Ground track
Ground track

The orbit data is extracted from the following two-line orbital elements,

1 21423U 91042B   24203.07800654  .00000955  00000-0  12053-3 0  9992
2 21423  82.4918  59.3209 0018343  44.2585 316.0091 14.80842220785787
Epoch (UTC): 21 July 2024 01:52:19
Eccentricity: 0.0018343
inclination: 82.4918°
perigee height: 614 km
apogee height: 639 km
right ascension of ascending node: 59.3209°
argument of perigee: 44.2585°
revolutions per day: 14.80842220
mean anomaly at epoch: 316.0091°
orbit number at epoch: 78578

The dashed part of the orbit path shows where the satellite is in the earth's shadow,  

DLR